Terminal Aerodrome Forecast
Issued by NWS Los Angeles, CA

Home | Current Version | Previous Version | Text Only | Print | Product List | Glossary On
Versions: 1 2 3 4 5 6 7 8 9 10 11 12 13 14 15 16 17 18 19 20 21 22 23 24 25 26 27 28 29 30 31 32 33 34
478
FTUS46 KLOX 191227 AAA
TAFSMX
TAF AMD
KSMX 191227Z 1912/2012 VRB03KT 6SM BR SCT005
     FM191700 30012KT P6SM SCT007
     FM192000 30018G28KT P6SM SKC
     FM200300 30015KT P6SM SKC
     FM201000 VRB03KT P6SM SKC=

USA.gov is the U.S. government's official web portal to all federal, state and local government web resources and services.